Weather History for South Bend, IN

Change the Weather History Date:

Saturday, September 8, 2012

  Actual Average Record
Temperature  
Mean Temperature 62 °F 67 °F  
Max Temperature 68 °F 77 °F 99 °F (1933)
Min Temperature 55 °F 57 °F 40 °F (1951)
Degree Days  
Heating Degree Days 3 2  
Month to date heating degree days 3 11  
Since 1 July heating degree days 13 29  
Cooling Degree Days 0 4  
Month to date cooling degree days 70 36  
Year to date cooling degree days 1098 718  
Growing Degree Days 12 (Base 50)    
Moisture  
Dew Point 53 °F    
Average Humidity 73    
Maximum Humidity 93    
Minimum Humidity 52    
Precipitation  
Precipitation 0.02 in 0.12 in 1.40 in (1992)
Month to date precipitation 0.85 0.96  
Year to date precipitation 25.43 26.23  
Snow  
Snow 0.00 in 0.00 in 0.00 in (2002)
Month to date snowfall 0.0 0.0  
Since 1 July snowfall 0.0 0.0  
Since 1 September snowfall 0.0  
Snow Depth 0.00 in    
Sea Level Pressure  
Sea Level Pressure 29.83 in    
Wind  
Wind Speed 9 mph (NW)    
Max Wind Speed 23 mph    
Max Gust Speed 28 mph    
Visibility 10 miles    
Events Rain    
T = Trace of Precipitation, MM = Missing Value Source: NWS Daily Summary

Daily Weather History Graph

Daily Weather History Graph

Search for Another Location

Airport:

Trip Planner

Search our weather history database for the weather conditions in past years. The results will help you decide how hot, cold, wet, or windy it might be!

Date:

Astronomy

Sep. 08, 2012 Rise Set
Actual Time 7:18 AM EDT 8:05 PM EDT
Civil Twilight 6:50 AM EDT 8:33 PM EDT
Nautical Twilight 6:17 AM EDT 9:07 PM EDT
Astronomical Twilight 5:42 AM EDT 9:41 PM EDT
Moon No Moon Rise 3:06 PM EDT (9/8)
Length of Visible Light 13h 43m
Length of Day
12h 47m
Waning Gibbous, 49% of the Moon is Illuminated
Sep 8
Waning Gibbous
Sep 15
New
Sep 22
First Quarter
Sep 29
Full
Oct 8
Last Quarter

Hourly Weather History & Observations

Time (EDT) Temp. Dew Point Humidity Pressure Visibility Wind Dir Wind Speed Gust Speed Precip Events Conditions
12:54 AM 59.0 °F 55.0 °F 87% 29.78 in 10.0 mi North 8.1 mph - 0.00 in   Mostly Cloudy
1:54 AM 57.9 °F 55.0 °F 90% 29.77 in 10.0 mi North 5.8 mph - N/A   Overcast
2:54 AM 57.9 °F 54.0 °F 87% 29.78 in 10.0 mi North 9.2 mph - N/A   Mostly Cloudy
3:54 AM 57.9 °F 53.1 °F 84% 29.78 in 10.0 mi NNW 3.5 mph - N/A   Overcast
4:54 AM 55.9 °F 52.0 °F 87% 29.77 in 10.0 mi WNW 5.8 mph - N/A   Scattered Clouds
5:54 AM 57.0 °F 54.0 °F 89% 29.77 in 10.0 mi WNW 4.6 mph - N/A   Mostly Cloudy
6:04 AM 57.2 °F 53.6 °F 88% 29.78 in 10.0 mi WNW 5.8 mph - N/A   Overcast
6:41 AM 57.2 °F 53.6 °F 88% 29.78 in 10.0 mi NW 4.6 mph - N/A   Mostly Cloudy
6:54 AM 59.0 °F 55.0 °F 87% 29.78 in 7.0 mi NW 4.6 mph - 0.00 in Rain Light Rain
7:54 AM 60.1 °F 55.9 °F 86% 29.81 in 10.0 mi North 6.9 mph - 0.02 in Rain Light Rain
8:54 AM 60.1 °F 55.0 °F 83% 29.84 in 10.0 mi NNE 8.1 mph - 0.00 in   Mostly Cloudy
9:54 AM 62.1 °F 54.0 °F 75% 29.86 in 10.0 mi NNW 6.9 mph - N/A   Mostly Cloudy
10:01 AM 62.6 °F 55.4 °F 77% 29.86 in 10.0 mi NNW 5.8 mph - N/A   Partly Cloudy
10:54 AM 66.0 °F 52.0 °F 60% 29.85 in 10.0 mi NW 19.6 mph 25.3 mph N/A   Mostly Cloudy
11:54 AM 66.0 °F 52.0 °F 60% 29.86 in 10.0 mi NW 17.3 mph 25.3 mph N/A   Scattered Clouds
12:54 PM 68.0 °F 52.0 °F 56% 29.86 in 10.0 mi NW 16.1 mph 26.5 mph N/A   Partly Cloudy
1:54 PM 66.9 °F 51.1 °F 57% 29.86 in 10.0 mi NW 18.4 mph 24.2 mph N/A   Mostly Cloudy
2:54 PM 66.9 °F 52.0 °F 59% 29.86 in 10.0 mi WNW 13.8 mph - N/A   Scattered Clouds
3:54 PM 68.0 °F 51.1 °F 55% 29.86 in 10.0 mi West 11.5 mph - N/A   Partly Cloudy
4:54 PM 66.9 °F 48.9 °F 52% 29.86 in 10.0 mi WNW 12.7 mph - N/A   Partly Cloudy
5:54 PM 66.9 °F 50.0 °F 54% 29.85 in 10.0 mi West 13.8 mph - N/A   Partly Cloudy
6:54 PM 66.0 °F 50.0 °F 56% 29.86 in 10.0 mi WNW 9.2 mph - N/A   Clear
7:54 PM 64.0 °F 50.0 °F 60% 29.86 in 10.0 mi Calm Calm - N/A   Clear
8:54 PM 60.1 °F 52.0 °F 75% 29.87 in 10.0 mi Calm Calm - N/A   Clear
9:54 PM 61.0 °F 52.0 °F 72% 29.86 in 10.0 mi Calm Calm - N/A   Overcast
10:54 PM 60.1 °F 51.1 °F 72% 29.86 in 10.0 mi SE 3.5 mph - N/A   Partly Cloudy
11:54 PM 59.0 °F 52.0 °F 78% 29.87 in 10.0 mi South 4.6 mph - N/A   Mostly Cloudy